Weather in Fedotyevo

Russia / Ryazan Oblast     54°33′25″N   40°20′10″E
temp.,
°C
wind,
m/s
gust,
m/s
humid.,
%
clouds,
%
prec.,
mm/h
press.,
hPa
HPBL,
m
27 february, sat
sat2700:00+2w7169299 0.1 1002726
03:00+1w7158986 0.1 1001806
06:00+1w81589100 0.1 1001954
09:00−5nw81486100 0.8 1003915
12:00−7nnw71186100 0.0 1005735
15:00−6nnw51087100 0.1 1008663
18:00−8nnw3891100 0.0 1010337
21:00−10nnw339693 0.0 101275
28 february, sun
sun2800:00−12nnw359620 0.0 101397
03:00−13nnw239610 0.0 101560
06:00−13nw239615 0.0 101530
09:00−11nnw249446 0.1 1016244
12:00−8nw238991 0.1 1016415
15:00−5nnw348996 0.1 1016503
18:00−5nnw2295100 0.1 101756
21:00−6nne2296100 0.1 101965
1 march, mon
mon100:00−6ne1295100 0.1 102026
03:00−9ne119698 0.1 102221
06:00−11n119686 0.0 102321
09:00−9se119682 0.0 102423
12:00−5ssw229275 0.0 1024239
15:00−3sw349382 0.0 1023374
18:00−4sw359683 0.1 1022135
21:00−2wsw599392 0.1 1021315
2 march, tue
tue200:00−1sw61293100 0.0 1017419
03:000wsw61292100 0.2 1014558
06:00+1w71392100 0.0 1011800
09:000w71398100 0.7 1008697
12:00+1nw61297100 0.3 1008706
15:00+1nw6129992 0.4 1007766
18:000nw6139096 0.1 1009646
21:00−1nw6139096 0.1 1010659
3 march, wed
wed300:00−2nw6129395 0.1 1011679
03:00−3nw6129494 0.2 1012616
06:00−5nw5129399 0.1 1013704
09:00−4nnw6128998 0.2 1015742
12:00−2nnw6118167 0.0 1016865
15:00−1nw698564 0.1 10171037
18:00−3nw5118895 0.1 1018362
21:00−5wnw4109262 0.1 1019244